Regional Weather Roundup
Issued by NWS

Home | Current Version | Previous Version | Graphics & Text | Print | Product List | Glossary On
Versions: 1 2 3 4 5 6 7 8 9 10 11 12 13 14 15 16 17 18 19 20 21 22 23 24 25 26 27 28 29 30 31 32 33 34 35 36 37 38 39 40 41 42 43 44 45 46 47 48 49 50
000
ASUS43 KDMX 240208
RWRIA

WEATHER ROUNDUP FOR IOWA
NATIONAL WEATHER SERVICE DES MOINES IA
900 PM CDT SAT JUL 23 2016

NOTE: "FAIR" INDICATES FEW OR NO CLOUDS BELOW 12,000 FEET WITH NO
SIGNIFICANT WEATHER AND/OR OBSTRUCTIONS TO VISIBILITY.

* - THESE STATIONS ARE NOT NWS STATIONS...THUS NOT UNDER NWS
QUALITY CONTROL.  THEY ALSO DO NOT REPORT WEATHER SUCH
AS PRECIPITATION OR FOG.

IAZ001>003-012>014-020>022-031>034-043>046-240300-
   NORTHWEST IOWA

CITY           SKY/WX    TMP DP  RH WIND       PRES   REMARKS
CARROLL *      CLOUDY    81  79  94 CALM      29.79S HX  89
CHEROKEE *     CLOUDY    82  79  89 S5        29.77R HX  92
DENISON *      CLOUDY    82  79  89 S9        29.77S HX  93
LE MARS *      CLEAR     84  77  79 S7        29.76R HX  94
SHELDON *      PTCLDY    81  79  94 S7        29.76S HX  89
SIOUX CITY     CLOUDY    86  77  74 S8        29.75R HX  97
SPENCER        CLEAR     80  76  87 SE6       29.77F HX  86
STORM LAKE *   CLOUDY    81  77  89 S8        29.79S HX  88
$$

IAZ055>058-069>071-079>083-090>094-240300-
   SOUTHWEST IOWA

CITY           SKY/WX    TMP DP  RH WIND       PRES   REMARKS
ATLANTIC *     CLEAR     82  77  83 S8        29.80R HX  91
CLARINDA *       N/A     82  75  78 MISG      29.83R HX  89
COUNCIL BLFS * CLEAR     82  77  83 S8        29.79S HX  91
CRESTON *      CLEAR     81  75  83 S12       29.85R HX  86
HARLAN  *      CLOUDY    82  79  89 S5        29.83R HX  93
LAMONI         PTCLDY    83  75  77 S9        29.84S HX  90
RED OAK *      PTCLDY    82  77  83 S9        29.80R HX  91
SHENANDOAH *   CLOUDY    84  77  79 S13       29.79S HX  94
$$

IAZ047>049-059>061-072>074-084-240300-
   CENTRAL IOWA

CITY           SKY/WX    TMP DP  RH WIND       PRES   REMARKS
AMES           CLEAR     82  78  88 S8        29.80S HX  91
ANKENY *         N/A    N/A N/A N/A MISG        N/A
BOONE *        CLEAR     82  77  83 S7        29.80S HX  91
CHARITON *       N/A    N/A N/A N/A MISG        N/A
DES MOINES     PTCLDY    84  77  79 S7        29.80S HX  94
GRINNELL*      CLEAR     82  77  84 S6        29.84S HX  91
KNOXVILLE *    CLEAR     82  75  78 S8        29.82R HX  89
MARSHALLTOWN   CLEAR     84  79  85 S8        29.80F HX  96
NEWTON *       CLEAR     82  81  94 S6        29.82S HX  95
PELLA *        CLEAR     83  75  79 S6        29.84R HX  90
PERRY *          N/A     81  79  92 S7        29.80S HX  90
$$

IAZ004>006-015-016-023>025-035-036-240300-
   NORTH CENTRAL IOWA

CITY           SKY/WX    TMP DP  RH WIND       PRES   REMARKS
ALGONA *       CLEAR     81  79  94 S5        29.77S HX  89
ESTHERVILLE    CLEAR     79  77  94 S3        29.77S HX  83
FORT DODGE *   CLOUDY    82  77  83 S10       29.79S HX  91
MASON CITY     CLOUDY    77  76  96 SE8       29.81R
FOREST CITY *  MOCLDY    75  75 100 SE3       29.79S
IOWA FALLS *     N/A     83  80  90 S9        29.81S HX  94
$$

IAZ007>011-017>019-026>030-037>042-050>054-066-240300-
   NORTHEAST IOWA

CITY           SKY/WX    TMP DP  RH WIND       PRES   REMARKS
CEDAR RAPIDS   CLEAR     75  74  96 SE7       29.83F
CHARLES CITY * PTCLDY    73  73 100 SE9       29.82S
CLINTON *      CLOUDY    73  72  96 E14       29.89S
DECORAH *      MOCLDY    72  72 100 SE6       29.83R
DUBUQUE        CLOUDY    72  70  93 SE10      29.88F
MONTICELLO *   CLOUDY    73  70  88 E6        29.85S
OELWEIN *      CLEAR     73  72  94 SE13      29.83F
WATERLOO       CLEAR     75  71  87 SE9       29.79F
$$

IAZ064-065-067-068-078-240300-
   EAST CENTRAL IOWA

CITY           SKY/WX    TMP DP  RH WIND       PRES   REMARKS
DAVENPORT      CLOUDY    75  72  90 E7        29.88F
IOWA CITY      PTCLDY    80  75  84 SE5       29.86S HX  85
MT. PLEASANT * CLEAR     85  83  93 SE5       29.87R HX 104
MUSCATINE *    MOCLDY    86  81  84 SE5       29.86R HX 102
QUAD CITIES    CLOUDY    80  71  74 NE14G22   29.89R THUNDER HX  84
$$

IAZ062-063-075>077-085>089-095>099-240300-
   SOUTHEAST IOWA

CITY           SKY/WX    TMP DP  RH WIND       PRES   REMARKS
BURLINGTON     CLEAR     84  82  94 S7        29.87S HX 100
FAIRFIELD *    CLEAR     84  77  79 S7        29.86R HX  94
KEOKUK *       CLEAR     86  81  84 S6        29.87R HX 102
CENTERVILLE *    N/A     82  75  78 S6        29.87S HX  89
OTTUMWA        CLEAR     83  76  79 S7        29.85R HX  91
WASHINGTON *   PTCLDY    84  81  89 S6        29.87R HX  98
$$

ABBREVIATIONS USED IN REMARKS
   TC - TEMPERATURES IN CELSIUS
  WCI - WIND CHILL INDEX
   HX - HEAT INDEX
  VSB - VISIBILITY
$$





USA.gov is the U.S. government's official web portal to all federal, state and local government web resources and services.